MKA-PN1

operational
NORAD ID: 38711 Int'l Des: 2012-039 Owner: NPOL/IKI Country: RU
LEOCIRCULARRETROGRADESSO

Über MKA-PN1

Beschreibung wird geladen...

Live-Position

3D-Globus wird geladen...

Nächste Überflüge

Höhenverlauf

Altitude vs Time

uPlot chart will show altitude changes over time

Zweizeiliger Elementsatz

1 38711U 12039E 26061.07042418 .00000193 00000-0 10130-3 0 9997
2 38711 98.9579 175.7611 0012434 116.2099 244.0359 14.25384271707580
Epoch: 2. März 2026 • Age: 35 hours

Aktueller Status

Höhe 839.4 km
Geschwindigkeit 7.43 km/s
Subsatellitenpunkt -60.51°S, 134.39°W
Startdatum 22. Juli 2012
Alter 13.6 years
Typ other

Technische Details

Klassifizierung Payload
Masse 110.00 kg
Trockenmasse 110.00 kg
Gesamtmasse 110.00 kg
Länge 1.00 m
Durchmesser 1.00 m
Spannweite 1.00 m
Form Box+ 3 pan
Hersteller NPOL
Bus-Typ Karat
Phasenstatus In Orbit
Besitzer/Staat NPOL/IKI/RU

Große Konstellationen

Loading constellations...